| time (UTC) | temp C | wind direction | speed KPH | gust KPH | rain 1hr cm | rain 24hr cm | rain mn cm | humidity % | barometer mb |
| 20260507223049 | 20 | 218 | 0.0 | 4.8 | 0.00 | 0.00 | 0.00 | 38 | 1017.1 |
| 20260507221539 | 20 | 152 | 0.0 | 3.2 | 0.00 | 0.00 | 0.00 | 42 | 1017.3 |
| 20260507214533 | 20 | 141 | 0.0 | 1.6 | 0.00 | 0.00 | 0.00 | 42 | 1017.6 |
| 20260507213037 | 20 | 76 | 0.0 | 3.2 | 0.00 | 0.00 | 0.00 | 42 | 1017.7 |
| 20260507210104 | 20 | 165 | 0.0 | 4.8 | 0.00 | 0.00 | 0.00 | 47 | 1018.1 |
| 20260507210023 | 19 | 165 | 0.0 | 4.8 | 0.00 | 0.00 | 0.00 | 46 | 1018.1 |
| 20260507204614 | 18 | 144 | 0.0 | 3.2 | 0.00 | 0.00 | 0.00 | 51 | 1018.2 |
| 20260507204537 | 18 | 129 | 0.0 | 3.2 | 0.00 | 0.00 | 0.00 | 51 | 1018.2 |
| 20260507184522 | 17 | 175 | 0.0 | 1.6 | 0.00 | 0.00 | 0.00 | 60 | 1019.3 |
| 20260507174515 | 13 | 168 | 0.0 | 1.6 | 0.00 | 0.00 | 0.00 | 68 | 1019.8 |
| 20260507173017 | 13 | 138 | 0.0 | 1.6 | 0.00 | 0.00 | 0.00 | 69 | 1019.9 |
| 20260507163050 | 11 | 117 | 0.0 | 1.6 | 0.00 | 0.00 | 0.00 | 75 | 1019.9 |
| 20260507163026 | 11 | 150 | 0.0 | 1.6 | 0.00 | 0.00 | 0.00 | 75 | 1019.9 |
| 20260507160004 | 11 | 169 | 0.0 | 0.0 | 0.00 | 0.00 | 0.00 | 78 | 1020.0 |
| 20260507154534 | 11 | 141 | 0.0 | 0.0 | 0.00 | 0.00 | 0.00 | 77 | 1020.0 |
| 20260507144604 | 10 | 166 | 0.0 | 0.0 | 0.00 | 0.00 | 0.00 | 81 | 1019.8 |
| 20260507144524 | 10 | 166 | 0.0 | 0.0 | 0.00 | 0.00 | 0.00 | 81 | 1019.8 |
| 20260507143113 | 9 | 156 | 0.0 | 0.0 | 0.00 | 0.00 | 0.00 | 81 | 1019.8 |
| 20260507143037 | 9 | 156 | 0.0 | 0.0 | 0.00 | 0.00 | 0.00 | 81 | 1019.8 |
| 20260507141504 | 10 | 159 | 0.0 | 0.0 | 0.00 | 0.00 | 0.00 | 82 | 1019.8 |
| 20260507140043 | -17 | 0.0 | 0.0 | 0.00 | 0.00 | 0.00 | 1019.6 | ||
| 20260507133051 | -17 | 0.0 | 0.0 | 0.00 | 0.00 | 0.00 | 1019.4 | ||
| 20260507124544 | 9 | 156 | 0.0 | 1.6 | 0.00 | 0.00 | 0.00 | 81 | 1019.4 |
| 20260507103050 | 10 | 159 | 0.0 | 1.6 | 0.00 | 0.00 | 0.00 | 78 | 1020.0 |
| 20260507100033 | 10 | 193 | 0.0 | 1.6 | 0.00 | 0.00 | 0.00 | 78 | 1020.2 |
| 20260507083031 | 10 | 134 | 0.0 | 1.6 | 0.00 | 0.00 | 0.00 | 78 | 1020.6 |
| 20260507080020 | 10 | 107 | 0.0 | 1.6 | 0.00 | 0.00 | 0.00 | 80 | 1020.6 |
| 20260507074504 | 10 | 139 | 0.0 | 1.6 | 0.00 | 0.00 | 0.00 | 81 | 1020.6 |
| 20260507071542 | 11 | 129 | 0.0 | 1.6 | 0.00 | 0.00 | 0.00 | 83 | 1020.4 |
| 20260507070034 | 11 | 143 | 0.0 | 1.6 | 0.00 | 0.00 | 0.00 | 84 | 1020.4 |
| 20260507044548 | 12 | 169 | 0.0 | 1.6 | 0.00 | 0.00 | 0.00 | 82 | 1020.4 |
| 20260507040011 | 13 | 179 | 0.0 | 1.6 | 0.00 | 0.00 | 0.00 | 80 | 1019.9 |
| 20260507033046 | 14 | 120 | 0.0 | 4.8 | 0.00 | 0.00 | 0.00 | 79 | 1019.6 |
| 20260507021525 | 16 | 191 | 0.0 | 3.2 | 0.00 | 0.00 | 0.00 | 73 | 1019.0 |
| 20260507014608 | 17 | 184 | 0.0 | 4.8 | 0.00 | 0.00 | 0.00 | 72 | 1019.0 |
| 20260507013030 | 17 | 115 | 0.0 | 3.2 | 0.00 | 0.00 | 0.00 | 72 | 1019.1 |
| 20260507010045 | 18 | 166 | 0.0 | 4.8 | 0.00 | 0.00 | 0.00 | 69 | 1019.0 |
| 20260507003053 | 18 | 182 | 0.0 | 4.8 | 0.00 | 0.00 | 0.00 | 69 | 1019.0 |
| 20260507003004 | 18 | 166 | 0.0 | 6.4 | 0.00 | 0.00 | 0.00 | 70 | 1019.0 |
| 20260507001621 | 19 | 157 | 0.0 | 8.0 | 0.00 | 0.00 | 0.00 | 70 | 1019.0 |
| 20260506231518 | 20 | 140 | 0.0 | 3.2 | 0.00 | 0.00 | 0.00 | 63 | 1018.9 |
| 20260506230023 | 20 | 134 | 0.0 | 1.6 | 0.00 | 0.00 | 0.00 | 64 | 1019.0 |
| 20260506224552 | 20 | 35 | 0.0 | 3.2 | 0.00 | 0.00 | 0.00 | 63 | 1019.3 |
| 20260506224529 | 21 | 37 | 0.0 | 3.2 | 0.00 | 0.00 | 0.00 | 63 | 1019.3 |